sat.trackr.live / text

‹ back to catalog

STARLINK-32163

NORAD 60262 · 2024-131H

PAYLOAD ACTIVE UNKNOWN

§ Identity

Operator
Country
US
Launch date
2024-07-27
Launch site
AFETR
Launch vehicle
Mass (kg)
RCS (m²)

Purposes: comms

External: N2YO · Heavens-Above · Gunter

§ Orbital elements

Epoch: 2026-05-25T04:06:05.733216Z

Period
94.01 min
Inclination
53.1611°
Eccentricity
0.0001219
Mean motion
15.31707004 rev/d
Perigee alt
469.9 km
Apogee alt
471.6 km
Semi-major
6,848.9 km
B*
6.0775e-5
RAAN
56.7987°
Arg perigee
86.2831°
Mean anomaly
273.8310°
Rev number
10,343

§ Raw data

STARLINK-321631 60262U 24131H   26145.17089969  .00001522  00000+0  60775-4 0  99922 60262  53.1611  56.7987 0001219  86.2831 273.8310 15.31707004103431

JSON: /api/v1/satellites/60262 · /tle

For live sub-satellite position, see the globe view (requires WebGL).

§ Visibility from observer

Set your observer location to see the next 7 days of passes ≥ 10°. The values pass through the URL so the page stays shareable.

No JS? Fill the form by hand. The geolocation button needs JavaScript.